Weather History for KSHN - October, 2011

Change the Weather History Date:

Monday, October 24, 2011

  Actual Average Record
Temperature  
Mean Temperature 44 °F -  
Max Temperature 55 °F 59 °F 66 °F (1968)
Min Temperature 32 °F 42 °F 30 °F (1958)
Degree Days  
Heating Degree Days 22    
Moisture  
Dew Point 38 °F    
Average Humidity 85    
Maximum Humidity 100    
Minimum Humidity 57    
Precipitation  
Precipitation 0.00 in - - ()
Sea Level Pressure  
Sea Level Pressure 30.27 in    
Wind  
Wind Speed 1 mph (WNW)    
Max Wind Speed 4 mph    
Max Gust Speed -    
Visibility 10 miles    
Events      
Averages and records for this station are not official NWS values.
T = Trace of Precipitation, MM = Missing Value Source: NWS Daily Summary

Daily Weather History Graph

Daily Weather History Graph

Search for Another Location

Airport or City:

Trip Planner

Search our weather history database for the weather conditions in past years. The results will help you decide how hot, cold, wet, or windy it might be!

Date:

Astronomy

Oct. 24, 2011 Rise Set
Actual Time 7:43 AM PDT 6:09 PM PDT
Civil Twilight 7:12 AM PDT 6:40 PM PDT
Nautical Twilight 6:36 AM PDT 7:16 PM PDT
Astronomical Twilight 6:01 AM PDT 7:51 PM PDT
Moon 5:01 AM PDT (10/24) 4:42 PM PDT (10/24)
Length of Visible Light 11h 28m
Length of Day
10h 25m
Waning Crescent, 6% of the Moon is Illuminated
Oct 24
Waning Crescent
Oct 26
New
Nov 2
First Quarter
Nov 10
Full
Nov 18
Last Quarter

Hourly Weather History & Observations

Time (PDT) Temp. Windchill Dew Point Humidity Pressure Visibility Wind Dir Wind Speed Gust Speed Precip Events Conditions
12:53 AM 41.0 °F - 39.9 °F 96% 30.16 in 10.0 mi Calm Calm - N/A   Clear
1:13 AM 42.8 °F 41.1 °F 39.2 °F 87% 30.15 in 10.0 mi Variable 3.5 mph - N/A   Mostly Cloudy
1:40 AM 42.8 °F 41.1 °F 39.2 °F 87% 30.15 in 10.0 mi WSW 3.5 mph - N/A   Scattered Clouds
1:53 AM 41.0 °F - 39.0 °F 93% 30.17 in 10.0 mi Calm Calm - N/A   Partly Cloudy
2:53 AM 39.9 °F - 37.9 °F 93% 30.18 in 10.0 mi Calm Calm - N/A   Clear
3:53 AM 37.0 °F 34.5 °F 35.1 °F 93% 30.18 in 10.0 mi North 3.5 mph - N/A   Clear
4:53 AM 37.0 °F 34.5 °F 36.0 °F 96% 30.20 in 10.0 mi West 3.5 mph - N/A   Clear
5:53 AM 35.1 °F - 34.0 °F 96% 30.22 in 10.0 mi Calm Calm - N/A   Clear
6:53 AM 32.0 °F - 32.0 °F 100% 30.23 in 10.0 mi Calm Calm - N/A   Clear
7:53 AM 32.0 °F - 28.9 °F 88% 30.24 in 10.0 mi Calm Calm - N/A   Clear
8:53 AM 35.1 °F - 34.0 °F 96% 30.27 in 10.0 mi Calm Calm - N/A   Mostly Cloudy
9:37 AM 39.2 °F - 37.4 °F 93% 30.27 in 10.0 mi Calm Calm - N/A   Overcast
9:53 AM 41.0 °F - 39.0 °F 93% 30.29 in 10.0 mi Calm Calm - N/A   Overcast
10:15 AM 42.8 °F - 39.2 °F 87% 30.28 in 10.0 mi Calm Calm - N/A   Overcast
10:36 AM 46.4 °F - 42.8 °F 87% 30.28 in 10.0 mi Calm Calm - N/A   Mostly Cloudy
10:53 AM 45.0 °F - 42.1 °F 90% 30.30 in 10.0 mi Calm Calm - N/A   Overcast
11:53 AM 48.9 °F - 43.0 °F 80% 30.31 in 10.0 mi Calm Calm - N/A   Mostly Cloudy
12:07 PM 48.2 °F - 42.8 °F 82% 30.30 in 10.0 mi Calm Calm - N/A   Scattered Clouds
12:24 PM 50.0 °F - 42.8 °F 76% 30.30 in 10.0 mi Calm Calm - N/A   Mostly Cloudy
12:53 PM 51.1 °F - 42.1 °F 71% 30.31 in 10.0 mi WNW 3.5 mph - N/A   Scattered Clouds
1:53 PM 53.1 °F - 42.1 °F 66% 30.30 in 10.0 mi Calm Calm - N/A   Clear
2:53 PM 55.9 °F - 41.0 °F 57% 30.30 in 10.0 mi Calm Calm - N/A   Partly Cloudy
3:53 PM 55.0 °F - 39.9 °F 57% 30.30 in 10.0 mi Calm Calm - N/A   Partly Cloudy
4:53 PM 53.6 °F - 39.2 °F 58% 30.29 in 10.0 mi Calm Calm - N/A   Clear
5:53 PM 53.1 °F - 43.0 °F 69% 30.31 in 10.0 mi Calm Calm - N/A   Overcast
6:53 PM 46.0 °F - 41.0 °F 83% 30.32 in 10.0 mi Calm Calm - N/A   Clear
7:53 PM 42.1 °F - 39.9 °F 92% 30.34 in 10.0 mi Calm Calm - N/A   Clear
8:53 PM 39.9 °F - 37.9 °F 93% 30.35 in 8.0 mi Calm Calm - N/A   Clear
9:53 PM 37.9 °F - 36.0 °F 93% 30.37 in 10.0 mi Calm Calm - N/A   Mostly Cloudy
10:53 PM 35.1 °F - 34.0 °F 96% 30.38 in 10.0 mi Calm Calm - N/A   Clear
11:53 PM 33.8 °F - 32.0 °F 93% 30.37 in 10.0 mi Calm Calm - N/A   Partly Cloudy